Regional Weather Roundup
Issued by NWS San Diego, CA

Home | Current Version | Previous Version | Text Only | Print | Product List | Glossary On
Versions: 1 2 3 4 5 6 7 8 9 10 11 12 13 14 15 16 17 18 19 20 21 22 23 24 25 26 27 28 29 30 31 32 33 34 35 36 37 38 39 40 41 42 43 44 45 46 47 48 49 50
000
ASUS46 KSGX 230210
RWRSGX

SAN DIEGO HOURLY WEATHER ROUNDUP
NATIONAL WEATHER SERVICE SAN DIEGO CA
700 PM PDT FRI AUG 22 2014

NOTE: "FAIR" INDICATES FEW OR NO CLOUDS BELOW 12,000 FEET WITH NO
SIGNIFICANT WEATHER AND/OR OBSTRUCTIONS TO VISIBILITY.

CAZ042-043-060-061-PZZ750-775-230300-

GREATER SAN DIEGO AREA

CITY           SKY/WX    TMP DP  RH WIND       PRES   REMARKS
LINDBERGH FLD  PTCLDY    74  63  68 NW7       29.93F
POINT LOMA       N/A     72  64  75 NW10        N/A
NATIONAL CITY    N/A     77  66  68 SW3       29.93S
CHULA VISTA      N/A     76  67  76 W3        29.86F
IMPERIAL BEACH CLEAR     72  65  78 W8        29.93F
BROWN FIELD    CLEAR     74  62  66 W5        29.93F
MIRAMAR MCAS   PTCLDY    75  60  59 NW7       29.93F
MONTGOMERY FLD CLEAR     76  60  57 NW6       29.93F

$$

NORTH SAN DIEGO COUNTY

CITY           SKY/WX    TMP DP  RH WIND       PRES   REMARKS
CAMP PENDLETON CLEAR     72  62  71 SW7       29.92F
OCEANSIDE AP   CLEAR     72  63  73 W3        29.92F
VISTA            N/A     74  65  71 W2        29.90F
CARLSBAD       CLEAR     72  63  73 W5        29.93S
DEL MAR          N/A     71  65  81 CALM      29.95F
LA JOLLA SCRIP   N/A     71  67  87 NW6       29.90F
FALLBROOK        N/A     75  65  70 SW6       29.92S
ESCONDIDO        N/A     79  60  51 W6        29.94S
SAN MARCOS       N/A     76  65  67 NW1       29.90F
POWAY            N/A     79  57  45 CALM      29.92F
R. PENASQUITOS   N/A     76  62  62 SW2       29.93S

$$

EAST SAN DIEGO COUNTY

CITY           SKY/WX    TMP DP  RH WIND       PRES   REMARKS
RAMONA         CLEAR     77  51  40 W9        29.96S
SANTEE LAKES     N/A     79  60  51 W3        29.92F
GILLESPIE FLD  FAIR      81  50  34 SW5       29.94S
LA MESA          N/A     80  62  54 CALM      29.86F
JAMUL            N/A     79  51  37 CALM      29.91S
DESCANSO N       N/A     74  42  31 W2        29.81F
MT. LAGUNA OBS   N/A     62  34  35 W5        29.73F
CAMPO            N/A     76  38  25 SW14      29.97S

$$

ORANGE COUNTY AND THE LOS ANGELES BASIN

CITY           SKY/WX    TMP DP  RH WIND       PRES   REMARKS
JOHN WAYNE AP  PTCLDY    74  63  68 S8        29.92S
LAGUNA BEACH     N/A     72  66  81 S3        29.89S
LAKE FOREST FR   N/A     75  61  62 CALM      29.83R
SANTA ANA        N/A     76  66  70 CALM      29.88R
HUNTINGTON BCH   N/A     71  65  83 SW3       29.94S
LOS ALAMITOS   CLEAR     73  64  73 SW9       29.91S
FULLERTON      CLEAR     76  62  62 S8        29.91R
LONG BEACH     CLEAR     75  64  68 NW10      29.91S
L.A. AP        MOCLDY    70  63  78 W13       29.93S
L.A. DOWNTOWN  CLEAR     73  63  70 W5        29.91S

$$

THE INLAND EMPIRE

CITY           SKY/WX    TMP DP  RH WIND       PRES   REMARKS
CORONA         CLEAR     78  62  57 W12G20    29.90R
CHINO          PTCLDY    79  58  48 W13       29.92R
ONTARIO        PTCLDY    83  40  21 W16       29.91S
SAN BERNARDINO PTCLDY    82  45  26 W12       29.92R
RIVERSIDE AP   CLEAR     81  59  47 W14G20    29.91R
RIV CYN CREST    N/A     82  66  59 W6        29.88S
MORENO VALLEY    N/A     82  60  46 W6        29.12S
MARCH ARB      CLEAR     81  60  48 NW10      29.94R
HORSETHIEF CYN   N/A     85  40  21 SW3       29.90S
PERRIS           N/A     82  42  24 S7        29.90R
MENIFEE          N/A     82  44  25 S5        29.97R
HEMET EAST       N/A     80  37  20 CALM      29.90S
FRENCH VALLEY  FAIR      79  52  38 SW7       29.95R
TEMECULA         N/A     80  51  37 SW8       29.89R

$$

SAN BERNARDINO AND RIVERSIDE COUNTY MOUNTAINS

CITY           SKY/WX    TMP DP  RH WIND       PRES   REMARKS
BIG BEAR AP    CLEAR     59  50  72 W9        30.22S
BIG BEAR SHEA    N/A     66  46  46 NW2       29.98S
PINE COVE        N/A     62  38  41 NW3       29.83F

$$

SOUTHERN DESERT INCLUDING THE COACHELLA VALLEY

CITY           SKY/WX    TMP DP  RH WIND       PRES   REMARKS
PALM SPRINGS   CLEAR     94  59  31 E10       29.81S
THOUSAND PALMS   N/A     92  59  32 SE8       29.76S
PALM DESERT      N/A     92  61  35 SE1       28.72S
THERMAL        CLEAR     91  59  33 S8        29.75F
BLYTHE         CLEAR     90  64  42 E5        29.79F
IMPERIAL AP    CLEAR     94  61  33 S7        29.77F
EL CENTRO NAS  CLEAR     93  51  23 SW10      29.78S
YUMA AZ        PTCLDY    94  54  25 S7        29.80S
MEXICALI       CLEAR     93  57  29 SE7       29.80

$$

UPPER DESERT

CITY           SKY/WX    TMP DP  RH WIND       PRES   REMARKS
VICTORVILLE AP CLEAR     82  46  28 S18       29.93S
HESPERIA         N/A     78  55  44 SW7       29.92S
APPLE VALLEY     N/A     79  49  34 SW12G29   30.01S
GRAY BUTTE AP  FAIR      83  43  24 W12       29.94S
PALMDALE       CLEAR     81  50  33 W20G28    29.93S
LANCASTER      CLEAR     80  50  34 SW23G33   29.93S
EDWARDS AFB    PTCLDY    84  48  28 SW22G33   29.89R
DAGGETT        CLEAR     91  51  25 SW23      29.84R
29 PALMS N     CLEAR     87  48  25 SW23G31   29.92S
NEEDLES        CLEAR     94  52  24 S9        29.81S

$$

REGIONAL REPORTS

CITY           SKY/WX    TMP DP  RH WIND       PRES   REMARKS
SANTA BARBARA  PTCLDY    65  60  84 W6        29.91F
SANDBERG       CLEAR     72  51  47 S14       30.09S
MT. WILSON       N/A    N/A N/A N/A MISG        N/A
LAS VEGAS NV   PTCLDY    92  43  18 S18G26    29.76F
PHOENIX AZ     PTCLDY    90  57  32 W7        29.85F
TIJUANA        CLEAR     75  57  53 NW7       29.95
ENSENADA NW      N/A     74  32  21 SW2       29.91S

$$

OFFSHORE ISLANDS

CITY           SKY/WX    TMP DP  RH WIND       PRES   REMARKS
CATALINA ARPT  CLEAR     62  58  86 SW9       29.96F
SAN NICOLAS IS CLOUDY   N/A N/A N/A W9        29.94F

$$

MARINE AND OFFSHORE BUOY REPORTS

STATION/POSITION SKY/WX   TEMP    WIND        PRES    SWELL
                          AIR SEA DIR/SP/G            HT/PER/DIR
                          (F)     (DEG/KT/KT) (MB)    (FT/S/D)
TANNER BANKS               67 70  300/  8/ 10 1013.8F   5/190/12
S CLEMENTE BASIN           69 71  290/  6/  8 1013.3F   5/190/11
SAN NICOLAS IS.               67                N/A     5/180/13
SO. S. ROSA ISLA           63 69  280/  8/ 10 1013.4F   5/12
W. S. BARBARA CH           63 64  300/ 12/ 14 1012.6F   3/180/13
M. S. BARBARA CH           63 68  260/ 10/ 14 1013.4
S. MONICA BASIN            67 72  250/  8/ 10 1013.1F   3/200/12
S PEDRO CHANNEL               70                N/A     2/170/13
DANA POINT                    73                N/A     3/180/13
CMP PENDLETON NS              74                N/A     3/210/12
OCEANSIDE OFFSHR              74                N/A     3/190/12
TORREY PINES OTR              74                N/A     5/190/12
LA JOLLA 1                 71 72  320/  4/  6 1013.5F
MISSION BAY BUOY              74                N/A     3/190/11
SAN DIEGO BAY                 75              1013.8S
POINT LOMA SOUTH              74                N/A     3/190/13

$$




USA.gov is the U.S. government's official web portal to all federal, state and local government web resources and services.